This is the latest recevied weather packets stored in our database for station/object DO2HBA-6. If no packets are shown the sender has not sent any weather packets the latest 10 day(s).
| Time | Temp. | Humidity | Pressure | Rain* | Wind** | Luminosity | Snow |
|---|---|---|---|---|---|---|---|
| 1777913002 | 25.56° C | 32% | 1011.1 hPa | 0 mm | - | - | - |
| 1777912702 | 25.56° C | 32% | 1011.1 hPa | 0 mm | - | - | - |
| 1777912402 | 25.56° C | 31% | 1011.2 hPa | 0 mm | - | - | - |
| 1777912101 | 25.56° C | 31% | 1011.2 hPa | 0 mm | - | - | - |
| 1777911801 | 26.11° C | 30% | 1011.3 hPa | 0 mm | - | - | - |
| 1777911501 | 26.11° C | 30% | 1011.3 hPa | 0 mm | - | - | - |
| 1777911201 | 26.11° C | 31% | 1011.3 hPa | 0 mm | - | - | - |
| 1777910900 | 26.67° C | 31% | 1011.4 hPa | 0 mm | - | - | - |
| 1777910600 | 26.67° C | 29% | 1011.5 hPa | 0 mm | - | - | - |
| 1777910300 | 26.67° C | 29% | 1011.5 hPa | 0 mm | - | - | - |
| 1777909999 | 27.22° C | 29% | 1011.5 hPa | 0 mm | - | - | - |
| 1777909699 | 27.78° C | 28% | 1011.8 hPa | 0 mm | - | - | - |
| 1777909399 | 27.78° C | 29% | 1011.6 hPa | 0 mm | - | - | - |
| 1777909098 | 27.78° C | 29% | 1011.7 hPa | 0 mm | - | - | - |
| 1777908798 | 27.22° C | 29% | 1011.8 hPa | 0 mm | - | - | - |
| 1777908498 | 27.22° C | 29% | 1011.9 hPa | 0 mm | - | - | - |
| 1777908198 | 27.78° C | 28% | 1011.9 hPa | 0 mm | - | - | - |
| 1777907897 | 27.78° C | 28% | 1012 hPa | 0 mm | - | - | - |
| 1777907597 | 27.78° C | 29% | 1012 hPa | 0 mm | - | - | - |
| 1777907297 | 27.78° C | 30% | 1012.1 hPa | 0 mm | - | - | - |
| 1777906996 | 27.78° C | 30% | 1012 hPa | 0 mm | - | - | - |
| 1777906696 | 28.33° C | 29% | 1012.1 hPa | 0 mm | - | - | - |
| 1777906396 | 28.33° C | 30% | 1012.2 hPa | 0 mm | - | - | - |
| 1777906096 | 27.78° C | 31% | 1012.3 hPa | 0 mm | - | - | - |
| 1777905795 | 28.33° C | 30% | 1012.3 hPa | 0 mm | - | - | - |
* Rain latest hour (hover to see other rain measurements)
** Current wind speed in m/s (hover to see current wind gust speed)